KD8CJ Weather Reports


time (UTC)temp
C
wind
direction
speed
KPH
gust
KPH
rain 1hr
cm
rain 24hr
cm
rain mn
cm
humidity
%
barometer
mb
20260508110023 6 294 0.0 1.6 0.00 0.00 0.00 82 1012.7
20260508104522 6 263 0.0 4.8 0.00 0.00 0.00 80 1012.4
20260508103021 6 274 0.0 1.6 0.00 0.00 0.00 82 1012.3
20260508101514 6 278 1.6 1.6 0.00 0.00 0.00 84 1012.2
20260508100018 6 265 0.0 3.2 0.00 0.00 0.00 84 1012.7
20260508094521 5 346 0.0 0.0 0.00 0.00 0.00 84 1012.4
20260508093025 6 346 0.0 0.0 0.00 0.00 0.00 84 1012.6
20260508091528 6 345 0.0 0.0 0.00 0.00 0.00 84 1013.1
20260508090033 6 346 0.0 0.0 0.00 0.00 0.00 84 1012.7
20260508084519 6 346 0.0 0.0 0.00 0.00 0.00 83 1012.5
20260508083006 7 346 0.0 0.0 0.00 0.00 0.00 80 1012.4
20260508081510 7 253 0.0 6.4 0.00 0.00 0.00 76 1012.7
20260508080012 6 176 1.6 6.4 0.00 0.00 0.00 76 1012.7
20260508074518 6 269 0.0 1.6 0.00 0.00 0.00 78 1013.1
20260508073022 6 269 0.0 1.6 0.00 0.00 0.00 80 1013.0
20260508071504 6 269 0.0 0.0 0.00 0.00 0.00 77 1013.1
20260508070009 6 269 0.0 1.6 0.00 0.00 0.00 79 1013.2
20260508064542 6 269 0.0 1.6 0.00 0.00 0.00 77 1013.0
20260508063017 6 269 0.0 1.6 0.00 0.00 0.00 74 1013.5
20260508061522 6 266 0.0 1.6 0.00 0.00 0.00 72 1013.1
20260508060004 6 289 0.0 1.6 0.00 0.00 0.00 71 1013.0
20260508054508 6 290 0.0 1.6 0.00 0.00 0.00 73 1013.1
20260508053015 5 290 0.0 0.0 0.00 0.00 0.00 78 1013.2
20260508051525 5 290 0.0 0.0 0.00 0.00 0.00 77 1013.4
20260508050032 6 290 0.0 0.0 0.00 0.00 0.00 76 1013.3
20260508044508 6 290 0.0 1.6 0.00 0.00 0.00 76 1013.2
20260508043013 6 290 0.0 0.0 0.00 0.00 0.00 75 1013.5
20260508041515 6 290 0.0 0.0 0.00 0.00 0.00 77 1013.6
20260508040025 6 290 0.0 1.6 0.00 0.00 0.00 75 1013.5
20260508034528 6 290 0.0 0.0 0.00 0.00 0.00 76 1013.4
20260508033006 6 290 0.0 0.0 0.00 0.00 0.00 76 1013.4
20260508031513 6 290 0.0 0.0 0.00 0.00 0.00 76 1013.4
20260508030020 6 352 0.0 0.0 0.00 0.00 0.00 74 1013.5
20260508024523 6 352 0.0 0.0 0.00 0.00 0.00 74 1013.3
20260508023026 5 352 0.0 0.0 0.00 0.00 0.00 73 1013.3
20260508021507 6 352 0.0 0.0 0.00 0.00 0.00 72 1013.3
20260508020015 6 352 0.0 0.0 0.00 0.00 0.00 68 1013.1
20260508014522 6 352 0.0 0.0 0.00 0.00 0.00 66 1013.2
20260508013026 7 352 0.0 0.0 0.00 0.00 0.00 65 1013.0
20260508011535 7 352 0.0 0.0 0.00 0.00 0.00 62 1012.7
20260508010020 7 352 0.0 0.0 0.00 0.00 0.00 62 1012.6
20260508004530 8 352 0.0 0.0 0.00 0.00 0.00 58 1012.7
20260508003020 8 352 0.0 0.0 0.00 0.00 0.00 56 1012.5
20260508001529 10 352 0.0 0.0 0.00 0.00 0.00 54 1012.4
20260508000026 11 251 0.0 3.2 0.00 0.00 0.00 47 1012.4
20260507234533 11 265 0.0 4.8 0.00 0.00 0.00 44 1012.2
20260507233023 12 340 0.0 4.8 0.00 0.00 0.00 45 1012.2
20260507231520 12 114 1.6 8.0 0.00 0.00 0.00 43 1012.2
20260507230023 12 226 1.6 4.8 0.00 0.00 0.00 42 1012.3
20260507224528 13 128 1.6 6.4 0.00 0.00 0.00 40 1012.4
20260507223027 14 257 1.6 11.3 0.00 0.00 0.00 41 1012.4
20260507221518 14 262 1.6 11.3 0.00 0.00 0.00 38 1012.4
20260507220024 13 274 4.8 17.7 0.00 0.00 0.00 39 1012.4
20260507214530 14 353 1.6 11.3 0.00 0.00 0.00 38 1012.3
20260507213026 14 243 1.6 8.0 0.00 0.00 0.00 44 1012.1
20260507211541 13 288 1.6 11.3 0.00 0.00 0.00 43 1012.0
20260507210022 13 247 3.2 14.5 0.00 0.00 0.00 43 1011.7
20260507204525 14 273 3.2 14.5 0.00 0.00 0.00 42 1011.6
20260507203008 15 239 4.8 9.7 0.00 0.00 0.00 41 1011.7
20260507201516 15 291 1.6 24.1 0.00 0.00 0.00 45 1011.4
20260507200015 15 320 3.2 9.7 0.00 0.00 0.00 43 1011.5
20260507194520 15 238 4.8 12.9 0.00 0.00 0.00 41 1011.6
20260507193005 15 341 3.2 11.3 0.00 0.00 0.00 41 1011.8
20260507191510 15 350 4.8 12.9 0.00 0.00 0.00 42 1011.8
20260507190017 15 116 3.2 16.1 0.00 0.00 0.00 38 1011.8
20260507184518 15 323 1.6 4.8 0.00 0.00 0.00 44 1011.7
20260507183022 14 307 1.6 9.7 0.00 0.00 0.00 47 1011.8
20260507181507 14 302 1.6 9.7 0.00 0.00 0.00 41 1011.7
20260507180010 14 229 3.2 11.3 0.00 0.00 0.00 46 1012.0
20260507174537 14 282 3.2 8.0 0.00 0.00 0.00 43 1012.1
20260507173023 14 253 1.6 16.1 0.00 0.00 0.00 41 1012.1
20260507171530 15 284 4.8 9.7 0.00 0.00 0.00 42 1012.2
20260507170006 14 323 0.0 11.3 0.00 0.00 0.00 41 1012.2
20260507164513 15 72 1.6 8.0 0.00 0.00 0.00 44 1012.3
20260507163020 15 27 1.6 11.3 0.00 0.00 0.00 46 1012.4
20260507161522 14 86 1.6 4.8 0.00 0.00 0.00 45 1012.4
20260507160024 14 283 3.2 9.7 0.00 0.00 0.00 40 1012.2
20260507154510 13 341 1.6 4.8 0.00 0.00 0.00 43 1012.2
20260507153017 13 15 3.2 8.0 0.00 0.00 0.00 44 1012.3
20260507151518 13 307 4.8 12.9 0.00 0.00 0.00 40 1012.3
20260507150023 13 21 1.6 12.9 0.00 0.00 0.00 41 1012.4
20260507144524 13 242 1.6 6.4 0.00 0.00 0.00 46 1012.5
20260507143011 12 276 3.2 11.3 0.00 0.00 0.00 48 1012.6
20260507141514 12 292 1.6 9.7 0.00 0.00 0.00 46 1012.7
20260507140035 11 324 1.6 8.0 0.00 0.00 0.00 52 1012.9
20260507134524 12 243 3.2 9.7 0.00 0.00 0.00 51 1013.0
20260507133024 12 233 3.2 14.5 0.00 0.00 0.00 58 1013.1
20260507131513 11 302 1.6 4.8 0.00 0.00 0.00 63 1013.2
20260507130015 11 219 0.0 1.6 0.00 0.00 0.00 67 1013.0
20260507124522 9 238 0.0 3.2 0.00 0.00 0.00 74 1013.1
20260507123028 8 264 0.0 3.2 0.00 0.00 0.00 76 1013.2
20260507121526 7 143 0.0 3.2 0.00 0.00 0.00 81 1013.1
20260507120026 6 187 0.0 3.2 0.00 0.00 0.00 86 1013.1
20260507114516 4 265 0.0 3.2 0.00 0.00 0.00 92 1013.1
20260507113055 3 255 0.0 1.6 0.00 0.00 0.00 95 1013.0
20260507111527 2 240 0.0 0.0 0.00 0.00 0.00 94 1012.9